Content
SEND FEEDBACK

Daily
Averages
Monthly
Summary
Canada

YELLOWKNIFE, NORTHWEST TERRITORIES


Home > North America > Canada > Northwest Territories
Elevation: 676 feet     Latitude: 62 28N     Longitude: 114 27W

WEATHER
 
SELECT A DAY
Number of Records: 190,998;   Date Range: 1/1/95 - 8/20/14
 
SHARE

PRINT THIS DATA

[ ← Previous Day ]
WEATHER ALMANAC - JANUARY 24, 2013
[ Next Day → ]
[ °C ]   °F
Weather ElementAverageHighLow
Temperature-10.2 °F-5.8 °F (3:00 pm)-14.8 °F (1:00 am)
Dewpoint-16 °F-9.4 °F (8:00 pm)-22 °F (1:00 am)
Humidity74.2 %84 % (8:00 pm)62 % (5:00 am)
Barometer30.03 in30.16 in (1:00 am)29.99 in (6:00 pm)
Wind Speed8.7 mph17.3 mph (3:00 am)
Wind Gust20.7 mph (2:00 am)
Weather ElementAverage
Visibility6 mi
Wind DirectionSSE (148.2 °)

Weather ElementTotal
Precipitation---
Heating Degree Days75.3 (Base 65)
Averaged from 33 records on January 24, 2013
WEATHER CONDITIONS BREAKOUT
WIND DIRECTION BREAKOUT
WEATHER BY HOUR - JANUARY 24, 2013
[ °C ]   °F
Local TimeTemperatureDewpointHumidityBarometerVisibilityWind DirectionWind SpeedGust SpeedPrecipitationEventsConditions
1:00 AM-14.8 °F-22.0 °F70 %30.16 in15.0 miESE (110°)15.0 mphOvercast
2:00 AM-14.8 °F-22.0 °F70 %30.14 in15.0 miESE (110°)15.0 mph20.7 mphOvercast
3:00 AM-14.8 °F-22.0 °F70 %30.12 in15.0 miESE (110°)17.3 mphOvercast
4:00 AM-14.8 °F-22.0 °F70 %30.10 in10.0 miESE (120°)16.1 mphOvercast
4:11 AM-14.8 °F-20.2 °F77 %30.10 in5.0 miESE (120°)15.0 mphSnowLight Snow
5:00 AM-14.0 °F-20.0 °F62 %30.08 in3.0 miESE (120°)13.8 mphSnowLight Snow
5:00 AM-13.0 °F-20.2 °F70 %30.08 in3.0 miESE (120°)11.5 mph18.4 mphSnowLight Snow
6:00 AM-13.0 °F-20.2 °F70 %30.07 in6.0 miESE (120°)11.5 mphSnowLight Snow
7:00 AM-13.0 °F-18.4 °F77 %30.05 in3.0 miESE (120°)11.5 mphSnowLight Snow
8:00 AM-13.0 °F-18.4 °F77 %30.04 in2.5 miESE (120°)9.2 mphSnowLight Snow
8:21 AM-13.0 °F-18.4 °F77 %30.04 in4.0 miESE (120°)9.2 mphSnowLight Snow
9:00 AM-13.0 °F-18.4 °F77 %30.04 in2.5 miESE (120°)9.2 mphSnowLight Snow
9:03 AM-13.0 °F-18.4 °F77 %30.04 in1.2 miESE (120°)9.2 mphSnowLight Snow Showers
10:00 AM-13.0 °F-18.4 °F77 %30.03 in2.0 miESE (110°)6.9 mphSnowLight Snow Showers
11:00 AM-12.0 °F-17.0 °F65 %30.03 in4.0 miESE (120°)6.9 mphSnowLight Snow Showers
11:00 AM-11.2 °F-16.6 °F77 %30.03 in4.0 miESE (110°)6.9 mphSnowLight Snow Showers
11:45 AM-11.2 °F-16.6 °F77 %30.02 in15.0 miESE (110°)8.1 mphMostly Cloudy
12:00 PM-11.2 °F-16.6 °F77 %30.01 in15.0 miEast (100°)8.1 mphMostly Cloudy
1:00 PM-9.4 °F-14.8 °F77 %30.01 in15.0 miSE (140°)6.9 mphSnowLight Snow Showers
2:00 PM-7.6 °F-13.0 °F77 %30.00 in5.0 miSouth (170°)13.8 mphSnowLight Snow Showers
3:00 PM-5.8 °F-13.0 °F71 %30.00 in6.0 miSouth (170°)9.2 mphSnowLight Snow Showers
4:00 PM-5.8 °F-11.2 °F77 %30.00 in5.0 miSouth (170°)8.1 mphSnowLight Snow Showers
5:00 PM-6.0 °F-12.0 °F65 %30.00 in5.0 miSSE (160°)5.8 mphSnowLight Snow Showers
5:00 PM-5.8 °F-11.2 °F77 %30.00 in5.0 miSSE (160°)5.8 mphSnowLight Snow Showers
6:00 PM-5.8 °F-11.2 °F77 %29.99 in3.0 miSSE (150°)5.8 mphSnowLight Snow Showers
7:00 PM-5.8 °F-11.2 °F77 %29.99 in3.0 miSE (140°)2.3 mphSnowLight Snow Showers
8:00 PM-5.8 °F-9.4 °F84 %29.99 in3.0 miEast (100°)3.5 mphSnowLight Snow Showers
9:00 PM-5.8 °F-11.2 °F77 %29.99 in3.0 miNE (50°)3.5 mphSnowLight Snow Showers
9:12 PM-5.8 °F-11.2 °F77 %29.99 in2.5 miNE (40°)3.5 mphSnowLight Snow Showers
9:49 PM-5.8 °F-11.2 °F77 %29.99 in3.0 miNorth (350°)3.5 mphSnowLight Snow Showers
10:00 PM-5.8 °F-11.2 °F77 %29.99 in3.0 miNorth (350°)4.6 mphSnowLight Snow Showers
11:00 PM-9.0 °F-14.0 °F65 %29.99 in5.0 miNNW (340°)4.6 mphSnowLight Snow
11:00 PM-9.4 °F-14.8 °F77 %29.99 in5.0 miNW (320°)5.8 mphSnowLight Snow
Hourly data recorded from CYZF, located miles away from Yellowknife, Northwest Territories







STORIES FROM OUR PARTNERS